Wind_Speed
44 40 46 45 38 38 36 34 36 38 40 39 43 44 44 43 45 46 47 46 48 38 33 36 32 32 34 36 38 37 38 38 37
44 42 49 49 46 41 36 39 37 37 38 37 39 45 46 43 45 47 46 46 46 49 42 41 40 36 36 33 31 32 35 35 33
48 54 51 54 48 48 47 45 43 40 42 40 37 36 42 45 43 44 46 48 42 42 47 44 38 41 40 37 37 35 33 36 35
45 50 54 59 52 52 45 49 48 45 42 44 44 41 38 43 42 45 46 49 45 41 35 40 44 47 45 42 39 39 35 35 35
40 51 50 53 59 55 54 53 53 53 47 47 47 45 42 42 41 42 49 49 45 44 43 42 41 43 43 38 36 35 35 34 35
43 44 45 44 49 50 55 54 50 44 46 46 49 48 44 46 45 44 44 44 45 47 44 43 42 40 38 37 38 36 36 38 38
50 50 42 45 42 50 50 54 54 51 51 50 49 49 47 47 48 47 44 41 44 45 42 45 45 45 44 40 44 42 42 44 44
32 54 57 54 45 49 50 50 53 54 51 53 56 53 50 50 49 44 46 46 44 47 46 45 46 51 49 52 51 51 50 49 48
20 23 26 33 46 48 51 54 53 53 52 50 52 55 54 52 50 50 45 45 49 46 44 48 49 51 52 52 53 52 51 51 52
20 23 24 26 28 30 32 35 36 37 40 42 47 48 50 57 55 54 45 42 41 46 50 48 48 50 49 52 51 53 53 54 53
19 19 20 21 22 24 26 29 31 31 29 32 36 40 42 42 45 46 46 45 44 45 48 50 49 52 53 52 54 54 53 52 53
21 21 21 21 22 24 24 24 24 26 29 31 32 35 40 44 46 49 49 49 49 49 51 54 55 57 56 57 58 57 57 55 53
26 25 25 25 25 25 25 25 25 26 25 25 28 33 37 39 42 45 46 45 45 45 48 50 52 54 53 53 53 56 56 54 53
31 30 30 30 30 30 30 29 30 29 28 27 27 29 30 31 32 32 33 34 34 34 34 36 37 39 40 40 40 41 41 41 42
37 36 36 35 36 35 36 35 35 34 33 32 33 34 34 34 34 33 33 34 34 33 33 33 33 32 32 32 32 31 30 31 31
43 43 43 41 42 41 41 40 40 40 38 38 38 37 38 38 38 38 38 38 39 38 37 38 37 36 35 36 36 35 33 33 33
49 49 49 48 48 47 46 46 46 47 45 44 44 44 43 42 41 41 41 42 42 41 42 41 41 41 40 40 41 41 41 38 38
55 55 55 55 54 54 54 53 53 53 52 50 49 49 49 48 48 47 47 47 46 46 46 46 45 45 45 44 44 45 46 44 42
60 60 61 61 61 60 61 61 60 60 60 58 57 55 56 55 55 55 55 55 54 53 53 53 53 53 52 51 50 50 51 50 48
67 67 67 67 67 67 67 67 67 66 66 66 66 64 63 63 63 63 62 62 61 61 61 60 59 60 59 58 57 56 56 56 55
Wind_Direction
232 224 208 214 218 214 217 215 218 219 221 225 221 222 229 233 236 232 235 239 240 235 231 239 234 242 250 246 250 252 254 256 260
225 213 211 215 214 215 223 216 214 218 220 227 230 229 229 231 234 234 232 238 240 242 241 242 243 246 250 250 246 248 253 258 256
216 208 211 212 221 219 222 230 226 229 232 237 239 236 236 233 231 233 234 238 240 241 245 250 249 250 251 250 251 257 257 256 256
218 212 213 212 217 224 226 229 229 237 241 246 237 239 242 237 234 235 234 235 237 238 239 248 249 252 254 256 252 255 251 252 255
217 211 213 217 219 224 228 231 236 240 240 242 239 241 243 239 237 236 239 239 237 238 239 242 246 252 252 247 248 242 245 251 251
216 220 221 221 224 225 231 230 232 241 237 233 239 237 239 235 232 232 233 236 239 237 234 237 237 236 234 238 242 240 244 249 251
218 222 224 232 230 228 230 232 234 242 236 234 234 240 241 238 234 233 229 229 235 234 233 236 236 235 230 234 236 247 249 246 252
219 226 228 232 238 232 228 230 240 240 245 240 237 239 241 236 233 234 233 233 234 235 235 234 236 236 241 241 247 250 248 247 251
188 203 214 227 235 239 241 234 241 249 248 243 239 240 241 239 239 238 239 237 239 238 238 240 242 244 247 247 247 249 251 250 253
182 186 194 203 212 218 226 231 232 237 240 239 236 236 236 235 241 241 238 240 243 240 237 238 242 246 246 247 248 252 254 253 254
208 204 200 197 199 204 213 220 225 227 232 230 226 229 230 230 233 232 237 244 241 240 239 242 246 246 247 250 252 255 255 257 256
231 230 229 225 218 214 215 216 218 220 225 228 227 228 231 230 231 234 238 238 237 239 242 242 244 247 248 251 253 255 259 260 261
233 235 237 240 241 240 239 235 232 229 224 224 227 230 233 233 233 237 241 244 247 248 249 250 251 253 256 257 258 259 259 258 258
242 239 239 240 240 242 240 241 244 244 243 239 235 234 234 236 236 236 240 243 245 246 247 250 251 253 255 257 257 257 257 257 259
246 247 247 246 246 245 246 243 244 244 244 247 247 246 245 244 245 247 248 248 247 248 249 250 250 251 253 256 257 258 259 259 260
247 246 245 245 247 247 249 252 251 251 249 246 246 247 249 251 252 252 251 252 255 256 256 257 257 259 259 261 262 263 262 264 266
248 250 251 250 250 250 250 252 253 252 251 251 251 250 249 249 250 252 254 255 255 256 257 257 258 260 260 260 260 261 262 260 260
250 252 253 253 253 254 254 253 254 256 255 253 254 255 254 253 253 253 253 254 256 257 259 261 262 262 262 262 263 263 264 264 263
252 252 254 255 255 255 256 255 254 255 256 257 255 255 256 256 256 255 256 257 257 259 260 261 262 263 263 264 264 264 266 267 268
255 255 255 256 256 257 257 257 258 257 257 257 257 255 255 256 256 257 256 257 258 258 258 259 261 264 266 267 267 266 266 267 268
Height
10784 10789 10789 10791 10796 10800 10806 10810 10815 10819 10824 10828 10831 10835 10837 10841 10845 10849 10852 10857 10860 10864 10865 10868 10870 10872 10873 10874 10876 10877 10879 10881 10882
10775 10778 10783 10787 10791 10796 10799 10804 10810 10815 10819 10822 10825 10828 10832 10836 10838 10841 10845 10849 10853 10856 10858 10862 10864 10866 10867 10868 10869 10871 10873 10874 10875
10767 10771 10777 10781 10786 10790 10795 10799 10804 10809 10814 10816 10819 10822 10824 10828 10831 10835 10839 10843 10846 10849 10852 10855 10857 10859 10861 10863 10864 10865 10866 10867 10869
10760 10766 10770 10777 10782 10786 10790 10793 10798 10803 10807 10810 10813 10815 10816 10821 10825 10828 10831 10836 10840 10843 10844 10847 10849 10853 10854 10855 10856 10858 10860 10861 10862
10754 10761 10766 10771 10776 10781 10785 10788 10793 10797 10800 10803 10806 10808 10810 10814 10818 10822 10825 10828 10831 10836 10837 10839 10842 10845 10846 10848 10849 10851 10853 10854 10854
10751 10756 10762 10766 10771 10776 10780 10784 10787 10790 10793 10796 10798 10801 10805 10808 10810 10814 10817 10819 10823 10826 10829 10832 10835 10837 10839 10841 10842 10844 10846 10847 10848
10748 10754 10757 10761 10765 10769 10773 10776 10779 10782 10786 10790 10791 10793 10798 10801 10804 10807 10810 10813 10815 10818 10822 10825 10827 10829 10830 10833 10835 10836 10838 10838 10840
10744 10749 10753 10756 10759 10762 10765 10770 10771 10775 10778 10781 10783 10785 10790 10793 10796 10799 10803 10805 10809 10811 10814 10817 10819 10821 10823 10825 10826 10828 10829 10830 10831
10742 10744 10746 10749 10752 10756 10758 10762 10765 10769 10768 10770 10774 10776 10781 10785 10788 10792 10795 10798 10801 10803 10806 10808 10810 10812 10814 10816 10817 10818 10819 10820 10821
10741 10743 10744 10746 10748 10750 10753 10756 10759 10760 10760 10761 10764 10767 10772 10777 10780 10784 10787 10790 10792 10794 10797 10798 10801 10803 10805 10806 10807 10808 10809 10810 10811
10740 10741 10742 10742 10744 10746 10749 10751 10753 10755 10755 10756 10758 10760 10765 10769 10772 10775 10779 10781 10783 10786 10788 10790 10791 10792 10795 10795 10797 10798 10800 10801 10801
10739 10741 10742 10743 10744 10746 10746 10748 10749 10750 10752 10753 10755 10756 10758 10762 10765 10767 10770 10772 10775 10776 10779 10781 10782 10781 10785 10786 10788 10789 10790 10791 10792
10733 10736 10738 10741 10742 10744 10745 10745 10746 10747 10748 10749 10751 10752 10754 10756 10759 10761 10763 10765 10767 10769 10770 10772 10773 10773 10776 10777 10777 10778 10779 10780 10781
10727 10730 10732 10734 10735 10736 10738 10739 10741 10742 10745 10746 10747 10748 10749 10750 10752 10754 10756 10757 10758 10760 10761 10763 10764 10765 10765 10767 10768 10768 10769 10770 10771
10719 10721 10723 10726 10727 10729 10729 10731 10732 10734 10737 10739 10740 10742 10743 10744 10745 10748 10749 10751 10752 10752 10754 10755 10756 10757 10758 10759 10759 10760 10762 10763 10763
10710 10711 10712 10715 10716 10719 10720 10722 10724 10726 10730 10731 10732 10733 10734 10736 10739 10740 10741 10742 10743 10745 10746 10746 10748 10749 10750 10751 10751 10752 10754 10755 10756
10699 10700 10703 10705 10707 10708 10711 10713 10713 10715 10718 10721 10723 10723 10725 10727 10728 10730 10731 10732 10734 10735 10736 10738 10739 10740 10741 10742 10743 10744 10745 10748 10749
10687 10688 10690 10693 10696 10697 10700 10703 10703 10703 10706 10709 10712 10712 10713 10716 10717 10719 10720 10722 10724 10725 10726 10727 10728 10729 10731 10732 10733 10734 10734 10737 10739
10673 10675 10676 10678 10680 10684 10685 10688 10690 10691 10692 10694 10697 10700 10701 10704 10705 10706 10708 10709 10712 10714 10715 10716 10715 10716 10718 10720 10721 10722 10722 10724 10727
10657 10659 10661 10663 10665 10667 10670 10672 10673 10676 10678 10680 10681 10684 10686 10688 10690 10691 10694 10696 10698 10699 10699 10701 10702 10703 10705 10706 10706 10709 10709 10710 10713